DECAYED
Showing default

ICEYE-X23, 56949 (Decayed)

Orbit data source: Space-Track

ICEYE-X23, 56949 was a payload satellite owned by ICEYE (FI) in LEO that was launched on Mon, 12 Jun 2023 UTC via an FALCON 9 launch vehicle from the Air Force Western Test Range (AFWTR). Payload-class satellites include a variety of spacecraft equipped with specific instruments for various scientific and technological missions. These include communications satellites like Starlink; space stations such as the ISS; scientific satellites like the Hubble; Earth observation satellites from companies like Planet Labs, Umbra, and HawkEye 360; GPS; miniature CubeSats for education and research; and military/defense satellites.

Not visible in the next 10 days
Identifier
56949, 2023-084T
Orbit
Decayed
Country
Flag of FIFI / FIN
Related business
Manufacturer
ICEYE
Mission
Decayed Commercial Radar Imaging
Bus & Motor
ICEYE, Unknown motor
Mass
90 kg wet, 89 kg dry
Launch date (UTC)
2023-06-12 (3 years ago)
Launch vehicle
FALCON 9
Launch site
Air Force Western Test Range (AFWTR)
Object type
Payload
Rocket body
Debris
Shape & HBR
Box + 1 Pan, 1.6 m
Radar Cross Section
0.825 m², Medium (>0.1 m² and < 1m²)

Expand to show TLE details & history
Last TLE update: 2 months ago

TLE from 2 months ago
0 ICEYE-X23
1 56949U 23084T   25361.98757022  .09387255  25959-5  91920-3 0  9995
2 56949  97.5386 148.2315 0009627 289.3989  70.6268 16.38236825142357
Epoch: 2025-12-27T23:42Z
TLE epoch observation values (Epoch: 2025-12-27T23:42:06.067Z)
Latitude
-0.00001°
Longitude
56.0002°
Altitude
171.655 km
Speed
7.804 km/s
True Right ascension
09h 52m 55s
True Declination
0° 00' 00"
Sunlit
Object was in full shadow at epoch
Visualization orbit readout
Latitude
Unknown
Longitude
Unknown
Altitude
Unknown
Speed
Unknown
Apparent Right ascension
Unknown
Apparent Declination
Unknown
Sunlit
N/A
Visualization observer readout
Local Sidereal Time
19:09:15
Azimuth
Unknown
Elevation
Unknown
Doppler factor
Unknown
Orbital elements
Apogee altitude
173.614 km
Perigee altitude
161.012 km
Semi-major axis
6,545.45 km
Eccentricity
0.00096
Inclination
97.5386°
RAAN
148.2315°
Arg. of periapsis
289.3989°
True anomaly
70.73091°
Mean anomaly
70.6268°
Eccentric anomaly
70.67885°
Mean motion
4.09858 °/min
Orbital period
87.84 mins
BSTAR
0.0009192
Loading maneuver chart data...
Computing Atmospheric mass density...
Loading historical data...
Loading historical data...
Loading historical data...
Loading historical data...
Loading historical data...
Loading historical data...
Loading historical data...

Documentation

Showing up to 5 results
|